Regional Weather Roundup
Issued by NWS

Home | Current Version | Previous Version | Graphics & Text | Print | Product List | Glossary On
Versions: 1 2 3 4 5 6 7 8 9 10 11 12 13 14 15 16 17 18 19 20 21 22 23 24 25 26 27 28 29 30 31 32 33 34 35 36 37 38 39 40 41 42 43 44 45 46 47 48 49 50
000
ASUS43 KMKX 280721
RWRWI

WISCONSIN REGIONAL WEATHER ROUNDUP
NATIONAL WEATHER SERVICE MILWAUKEE/SULLIVAN WI
200 AM CDT THU JUL 28 2016

NOTE: "FAIR" INDICATES FEW OR NO CLOUDS BELOW 12,000 FEET WITH NO
SIGNIFICANT WEATHER AND/OR OBSTRUCTIONS TO VISIBILITY.

WIZ001-002-006>008-014>016-023>028-280800-
NORTHWEST WISCONSIN

CITY           SKY/WX    TMP DP  RH WIND       PRES   REMARKS
SUPERIOR ARPT  CLEAR     58  55  91 CALM      30.04S
ASHLAND        CLOUDY    62  61  96 NE8       30.03F
HAYWARD        CLOUDY    63  61  93 N3        30.02R
SIREN          CLOUDY    63  61  94 NE6       30.02S
CUMBERLAND     CLOUDY    63  61  94 N5        30.01R
RICE LAKE      CLOUDY    65  63  93 CALM      30.01S
CHETEK         NOT AVBL
LADYSMITH      MOCLDY    64  63  94 NE3       30.00F
EAU CLAIRE     CLOUDY    66  65  96 N6        29.96S
MENOMONIE      CLOUDY    65  65  99 N6        29.98S
NEW RICHMOND   CLOUDY    65  64  98 N6        29.99F
OSCEOLA        CLOUDY    65  65 100 N7        30.02F
$$

WIZ003>005-009-010-017-018-280800-
NORTH CENTRAL WISCONSIN

CITY           SKY/WX    TMP DP  RH WIND       PRES   REMARKS
MANITOWISH WTR CLOUDY    62  62 100 NE7       30.03S
ARBOR VITAE    CLOUDY    64  62  95 CALM      30.02F
WOODRUFF       CLOUDY    64  62  95 CALM      30.02F
RHINELANDER    LGT RAIN  64  62  93 NE8       30.03S
EAGLE RIVER    CLOUDY    60  59  97 E6        30.03S
LAND O LAKES   CLOUDY    60  59  97 NE3       30.05S
PHILLIPS       CLOUDY    63  63  99 NE6       30.00S
TOMAHAWK       CLOUDY    64  62  95 NE3       30.01S
MEDFORD        RAIN      62  62 100 NE7       29.98F
MERRILL        LGT RAIN  64  64 100 E3        30.00S
$$

WIZ029-030-035-036-043>047-280800-
CENTRAL WISCONSIN

CITY           SKY/WX    TMP DP  RH WIND       PRES   REMARKS
WAUSAU         RAIN      64  63  96 E7        29.97F FOG
MOSINEE        DRIZZLE   63  63 100 E8        29.98F
MARSHFIELD     HVY RAIN  66  63  90 E9        29.95F FOG
STEVENS POINT  RAIN      63  63 100 NE6       29.98S
WAUPACA        CLOUDY    67  67  99 CALM      29.97F
WAUTOMA        CLOUDY    66  66 100 NE8       29.95F
WISC RAPIDS    LGT RAIN  66  63  90 E7        29.96F
CAMP DOUGLAS   PTCLDY    66  66 100 NE1       29.93S
$$

WIZ011>013-019>022-031-037>040-048>050-280800-
NORTHEAST WISCONSIN

CITY           SKY/WX    TMP DP  RH WIND       PRES   REMARKS
ANTIGO         DRIZZLE   60  58  95 E8        30.01S
SHAWANO        LGT RAIN  65  63  91 E10       29.99S
OCONTO         CLOUDY   N/A N/A N/A NE7       29.99F
STURGEON BAY   RAIN      64  62  93 NE7       30.00F
GREEN BAY      CLOUDY    67  67 100 NE12      29.97F
MANITOWOC      CLOUDY    69  63  81 NE8       29.97F
APPLETON       CLOUDY    66  64  94 E10       29.95F
CLINTONVILLE   DRIZZLE   64  64 100 NE5       29.97F
OSHKOSH        CLOUDY    70  66  87 NE8       29.96F
$$

WIZ032>034-041-042-053>061-280800-
SOUTHWEST WISCONSIN

CITY           SKY/WX    TMP DP  RH WIND       PRES   REMARKS
LA CROSSE      MOCLDY    70  67  90 N5        29.91S
SPARTA         CLOUDY    65  64  99 NE3       29.93F
VIROQUA        CLEAR     67  67 100 CALM      29.93S
BOSCOBEL       FOG       67  66  97 CALM      29.91F VSB 1/2
PRAIRIE DU CHI PTCLDY    68  66  93 CALM      29.91S
PLATTEVILLE    CLEAR     69  69  99 CALM      29.93R
$$

WIZ056-057-062-063-064-067-068-280800-
SOUTH CENTRAL WISCONSIN

CITY           SKY/WX    TMP DP  RH WIND       PRES   REMARKS
REEDSBURG      CLOUDY    69  69 100 E3        29.92S
BARABOO/DELLS  CLOUDY    69  67  93 E8        29.92F
LONE ROCK      PTCLDY    65  63  93 CALM      29.91F FOG
MINERAL POINT  CLEAR     72  68  88 CALM      29.92F
MADISON        PTCLDY    71  68  90 SE3       29.92F
MIDDLETON      PTCLDY    70  70  99 CALM      29.92F
WATERTOWN      CLOUDY    69  69 100 E5        29.92F
MONROE         CLEAR     68  66  94 E5        29.93S
JANESVILLE     PTCLDY    72  70  94 CALM      29.92F
$$

WIZ051-052-058>065-066-070>072-280800-
SOUTHEAST WISCONSIN

CITY           SKY/WX    TMP DP  RH WIND       PRES   REMARKS
MILWAUKEE      MOCLDY    69  67  93 NE6       29.93F
WAUKESHA       CLOUDY    68  64  88 CALM      29.95F
MILWAUKEE/TIMM PTCLDY    68  63  83 CALM      29.95F
RACINE         RAIN      72  69  90 E6        29.94F FOG
BURLINGTON     CLEAR     67  67  97 CALM      29.93F FOG
KENOSHA        PTCLDY    74  66  76 E6        29.93F
FOND DU LAC    CLOUDY    72  65  78 NE8       29.95F
SHEBOYGAN      CLOUDY    68  64  87 NE6       29.96F
WEST BEND      CLOUDY    64  64 100 CALM      29.95F
JUNEAU         CLOUDY    67  65  96 N5        29.95S
$$

LSZ147-162-280800-
LAKE SUPERIOR

STATION/POSITION TIME  TEMP    WIND        PRES    WAVE
                       AIR SEA DIR/SP/G            HT/PER
                 (UTC) (F)     (DEG/KT/KT) (MB)    (FT/S)
W MID LAKE BUOY  0650   61 60  360/  6/  8 1017.0F   1
DEVILS ISLAND    0700   62      30/ 10/ 11 1017.5F
PORT WING        0540   61      70/  2/  5 1017.6S
SAXON HARBOR     0600   65      80/  3/  6 1016.6
$$

LMZ867-665-643>646-280800-
LAKE MICHIGAN

STATION/POSITION TIME  TEMP    WIND        PRES    WAVE
                       AIR SEA DIR/SP/G            HT/PER
                 (UTC) (F)     (DEG/KT/KT) (MB)    (FT/S)
CHAMBERS ISLAND  0600   65     360/ 13/ 16 1016.3F
N MID LAKE BUOY  0650   66 70   10/ 12/ 14 1016.0R   2/ 4
NORTHPORT PIER   0600   67     330/ 11/ 14 1016.6R
SISTER BAY       0621   64      10/  9/ 11   N/A
ALGOMA LAKESHORE 0613          360/  9/ 14   N/A
KEWAUNEE LAKESHO 0600   66      10/  4/  7 1014.8R
SHEBOYGAN LAKESH 0700   65     360/ 13/ 14 1014.8S
PORT WASHINGTON  0600   70     310/  2/  3 1015.2S
ATWATER BUOY     0700   62 62  350/  2/  4 1015.3F
MILWAUKEE LAKESH 0610   69      40/  6/  6   N/A
S MID LAKE BUOY  0650   75 75   20/  4/  6 1012.7F   0
KENOSHA   LAKESH 0700   75     100/ 12/ 15 1012.9F
$$

TC  - TEMPERATURE IN CELSIUS
VSB - VISIBILITY IN STATUTE MILES
WCI - WIND CHILL INDEX
HX  - HEAT INDEX





USA.gov is the U.S. government's official web portal to all federal, state and local government web resources and services.